Time,TemperatureF,DewpointF,PressureIn,WindDirection,WindDirectionDegrees,WindSpeedMPH,WindSpeedGustMPH,Humidity,HourlyPrecipIn,Conditions,Clouds,dailyrainin,SoftwareType,DateUTC
2013-05-03 00:02:00,55.8,13.6,30.31,West,271,0.0,0.0,18,0.00,,---,0.00,VWS V14.00,2013-05-03 07:02:00,
2013-05-03 00:12:00,54.2,13.4,30.31,West,271,0.0,0.0,20,0.00,,---,0.00,VWS V14.00,2013-05-03 07:12:00,
2013-05-03 00:17:00,53.5,12.9,30.31,West,271,0.0,0.0,20,0.00,,---,0.00,VWS V14.00,2013-05-03 07:17:00,
2013-05-03 00:22:00,52.9,12.4,30.31,West,271,0.0,0.0,20,0.00,,---,0.00,VWS V14.00,2013-05-03 07:22:00,
2013-05-03 00:27:00,51.9,11.5,30.31,West,271,0.0,0.0,20,0.00,,---,0.00,VWS V14.00,2013-05-03 07:27:00,
2013-05-03 00:32:00,50.8,10.6,30.31,West,271,0.0,6.0,20,0.00,,---,0.00,VWS V14.00,2013-05-03 07:32:00,
2013-05-03 00:37:00,50.1,11.2,30.31,West,271,0.0,0.0,20,0.00,,---,0.00,VWS V14.00,2013-05-03 07:37:00,
2013-05-03 00:42:00,50.1,11.2,30.31,West,271,0.0,0.0,20,0.00,,---,0.00,VWS V14.00,2013-05-03 07:42:00,
2013-05-03 00:47:00,50.4,11.4,30.31,West,271,0.0,0.0,20,0.00,,---,0.00,VWS V14.00,2013-05-03 07:47:00,
2013-05-03 00:52:00,49.6,10.7,30.31,West,271,0.0,0.0,20,0.00,,---,0.00,VWS V14.00,2013-05-03 07:52:00,
2013-05-03 00:57:00,48.7,11.1,30.31,West,271,0.0,0.0,22,0.00,,---,0.00,VWS V14.00,2013-05-03 07:57:00,
2013-05-03 01:02:00,48.2,10.6,30.31,West,271,0.0,0.0,22,0.00,,---,0.00,VWS V14.00,2013-05-03 08:02:00,
2013-05-03 01:07:00,48.1,10.6,30.31,West,271,0.0,0.0,22,0.00,,---,0.00,VWS V14.00,2013-05-03 08:07:00,
2013-05-03 01:12:00,47.9,10.4,30.30,West,271,0.0,0.0,22,0.00,,---,0.00,VWS V14.00,2013-05-03 08:12:00,
2013-05-03 01:17:00,47.9,11.4,30.30,West,271,0.0,0.0,22,0.00,,---,0.00,VWS V14.00,2013-05-03 08:17:00,
2013-05-03 01:22:00,49.5,11.7,30.30,West,271,0.0,0.0,22,0.00,,---,0.00,VWS V14.00,2013-05-03 08:22:00,
2013-05-03 01:28:00,50.6,12.6,30.30,West,271,0.0,0.0,22,0.00,,---,0.00,VWS V14.00,2013-05-03 08:28:00,
2013-05-03 01:37:00,50.3,12.4,30.30,West,271,0.0,0.0,22,0.00,,---,0.00,VWS V14.00,2013-05-03 08:37:00,
2013-05-03 01:47:00,51.0,11.9,30.29,West,271,0.0,0.0,20,0.00,,---,0.00,VWS V14.00,2013-05-03 08:47:00,
2013-05-03 01:52:00,50.3,12.4,30.29,West,271,0.0,0.0,22,0.00,,---,0.00,VWS V14.00,2013-05-03 08:52:00,
2013-05-03 01:57:00,49.9,12.1,30.29,West,271,0.0,0.0,22,0.00,,---,0.00,VWS V14.00,2013-05-03 08:57:00,
2013-05-03 02:02:00,49.3,12.6,30.29,West,271,0.0,0.0,22,0.00,,---,0.00,VWS V14.00,2013-05-03 09:02:00,
2013-05-03 02:07:00,48.5,11.9,30.29,West,271,0.0,0.0,22,0.00,,---,0.00,VWS V14.00,2013-05-03 09:07:00,
2013-05-03 02:12:00,48.1,11.6,30.29,West,271,0.0,0.0,22,0.00,,---,0.00,VWS V14.00,2013-05-03 09:12:00,
2013-05-03 02:18:00,49.2,13.5,30.29,West,271,0.0,0.0,24,0.00,,---,0.00,VWS V14.00,2013-05-03 09:18:00,
2013-05-03 02:27:00,48.7,11.1,30.29,West,271,0.0,0.0,22,0.00,,---,0.00,VWS V14.00,2013-05-03 09:27:00,
2013-05-03 02:32:00,47.8,10.3,30.28,West,271,0.0,0.0,22,0.00,,---,0.00,VWS V14.00,2013-05-03 09:32:00,
2013-05-03 02:37:00,47.0,10.6,30.28,West,271,0.0,0.0,22,0.00,,---,0.00,VWS V14.00,2013-05-03 09:37:00,
2013-05-03 02:42:00,46.4,11.1,30.28,West,271,0.0,0.0,24,0.00,,---,0.00,VWS V14.00,2013-05-03 09:42:00,
2013-05-03 02:48:00,45.9,10.7,30.28,West,271,0.0,0.0,24,0.00,,---,0.00,VWS V14.00,2013-05-03 09:48:00,
2013-05-03 02:57:00,46.1,11.8,30.28,West,271,0.0,0.0,24,0.00,,---,0.00,VWS V14.00,2013-05-03 09:57:00,
2013-05-03 03:07:00,47.9,12.4,30.28,West,271,0.0,0.0,24,0.00,,---,0.00,VWS V14.00,2013-05-03 10:07:00,
2013-05-03 03:12:00,47.4,12.0,30.28,West,271,0.0,0.0,24,0.00,,---,0.00,VWS V14.00,2013-05-03 10:12:00,
2013-05-03 03:17:00,46.9,12.5,30.28,West,271,0.0,0.0,24,0.00,,---,0.00,VWS V14.00,2013-05-03 10:17:00,
2013-05-03 03:28:00,45.9,11.6,30.27,West,271,0.0,0.0,24,0.00,,---,0.00,VWS V14.00,2013-05-03 10:28:00,
2013-05-03 03:37:00,46.4,12.9,30.27,West,271,0.0,0.0,26,0.00,,---,0.00,VWS V14.00,2013-05-03 10:37:00,
2013-05-03 03:42:00,46.5,13.0,30.27,West,271,0.0,0.0,26,0.00,,---,0.00,VWS V14.00,2013-05-03 10:42:00,
2013-05-03 03:47:00,45.9,13.4,30.27,West,271,0.0,0.0,26,0.00,,---,0.00,VWS V14.00,2013-05-03 10:47:00,
2013-05-03 03:57:00,46.6,14.0,30.27,West,271,0.0,0.0,26,0.00,,---,0.00,VWS V14.00,2013-05-03 10:57:00,
2013-05-03 04:02:00,47.5,14.8,30.27,West,271,0.0,0.0,26,0.00,,---,0.00,VWS V14.00,2013-05-03 11:02:00,
2013-05-03 04:12:00,47.3,15.4,30.27,West,271,0.0,0.0,28,0.00,,---,0.00,VWS V14.00,2013-05-03 11:12:00,
2013-05-03 04:17:00,47.5,14.8,30.26,West,271,0.0,0.0,26,0.00,,---,0.00,VWS V14.00,2013-05-03 11:17:00,
2013-05-03 04:22:00,46.7,13.2,30.26,West,271,0.0,0.0,26,0.00,,---,0.00,VWS V14.00,2013-05-03 11:22:00,
2013-05-03 04:27:00,45.9,13.4,30.26,West,271,0.0,0.0,26,0.00,,---,0.00,VWS V14.00,2013-05-03 11:27:00,
2013-05-03 04:32:00,45.6,13.1,30.26,West,271,0.0,0.0,26,0.00,,---,0.00,VWS V14.00,2013-05-03 11:32:00,
2013-05-03 04:37:00,45.1,12.7,30.26,West,271,0.0,0.0,26,0.00,,---,0.00,VWS V14.00,2013-05-03 11:37:00,
2013-05-03 04:47:00,45.1,13.6,30.26,West,271,0.0,0.0,28,0.00,,---,0.00,VWS V14.00,2013-05-03 11:47:00,
2013-05-03 04:53:00,45.3,13.7,30.26,West,271,0.0,0.0,28,0.00,,---,0.00,VWS V14.00,2013-05-03 11:53:00,
2013-05-03 05:02:00,45.3,12.9,30.26,West,271,0.0,0.0,26,0.00,,---,0.00,VWS V14.00,2013-05-03 12:02:00,
2013-05-03 05:12:00,45.0,12.6,30.26,West,271,0.0,0.0,26,0.00,,---,0.00,VWS V14.00,2013-05-03 12:12:00,
2013-05-03 05:17:00,44.4,12.9,30.26,West,271,0.0,0.0,28,0.00,,---,0.00,VWS V14.00,2013-05-03 12:17:00,
2013-05-03 05:22:00,43.8,12.4,30.26,West,271,0.0,0.0,28,0.00,,---,0.00,VWS V14.00,2013-05-03 12:22:00,
2013-05-03 05:27:00,43.9,12.5,30.26,West,271,0.0,0.0,28,0.00,,---,0.00,VWS V14.00,2013-05-03 12:27:00,
2013-05-03 05:32:00,44.3,12.9,30.26,West,271,0.0,0.0,28,0.00,,---,0.00,VWS V14.00,2013-05-03 12:32:00,
2013-05-03 05:37:00,44.7,13.2,30.26,West,271,0.0,0.0,28,0.00,,---,0.00,VWS V14.00,2013-05-03 12:37:00,
2013-05-03 05:42:00,44.7,13.2,30.25,West,271,0.0,0.0,28,0.00,,---,0.00,VWS V14.00,2013-05-03 12:42:00,
2013-05-03 05:52:00,44.4,16.0,30.26,West,271,0.0,0.0,32,0.00,,---,0.00,VWS V14.00,2013-05-03 12:52:00,
2013-05-03 05:57:00,44.1,17.2,30.25,West,271,0.0,0.0,34,0.00,,---,0.00,VWS V14.00,2013-05-03 12:57:00,
2013-05-03 06:02:00,44.4,17.5,30.25,West,271,0.0,0.0,34,0.00,,---,0.00,VWS V14.00,2013-05-03 13:02:00,
2013-05-03 06:12:00,46.1,18.3,30.25,West,271,0.0,0.0,32,0.00,,---,0.00,VWS V14.00,2013-05-03 13:12:00,
2013-05-03 06:17:00,46.0,17.5,30.25,West,271,0.0,0.0,32,0.00,,---,0.00,VWS V14.00,2013-05-03 13:17:00,
2013-05-03 06:22:00,46.3,16.2,30.25,West,271,0.0,0.0,30,0.00,,---,0.00,VWS V14.00,2013-05-03 13:22:00,
2013-05-03 06:27:00,46.6,14.8,30.25,West,271,0.0,0.0,28,0.00,,---,0.00,VWS V14.00,2013-05-03 13:27:00,
2013-05-03 06:32:00,47.1,15.3,30.25,West,271,0.0,0.0,28,0.00,,---,0.00,VWS V14.00,2013-05-03 13:32:00,
2013-05-03 06:42:00,48.1,16.1,30.25,West,271,0.0,0.0,28,0.00,,---,0.00,VWS V14.00,2013-05-03 13:42:00,
2013-05-03 06:47:00,48.3,17.1,30.25,West,271,0.0,0.0,28,0.00,,---,0.00,VWS V14.00,2013-05-03 13:47:00,
2013-05-03 06:52:00,48.6,17.4,30.25,West,271,0.0,0.0,28,0.00,,---,0.00,VWS V14.00,2013-05-03 13:52:00,
2013-05-03 06:57:00,48.8,18.4,30.25,West,271,0.0,0.0,30,0.00,,---,0.00,VWS V14.00,2013-05-03 13:57:00,
2013-05-03 07:02:00,49.1,18.6,30.25,West,271,0.0,0.0,30,0.00,,---,0.00,VWS V14.00,2013-05-03 14:02:00,
2013-05-03 07:12:00,49.1,17.8,30.25,West,271,0.0,0.0,28,0.00,,---,0.00,VWS V14.00,2013-05-03 14:12:00,
2013-05-03 07:17:00,49.6,17.4,30.25,West,271,0.0,0.0,28,0.00,,---,0.00,VWS V14.00,2013-05-03 14:17:00,
2013-05-03 07:22:00,49.9,18.5,30.24,West,271,0.0,0.0,28,0.00,,---,0.00,VWS V14.00,2013-05-03 14:22:00,
2013-05-03 07:27:00,50.7,19.2,30.24,West,271,0.0,0.0,28,0.00,,---,0.00,VWS V14.00,2013-05-03 14:27:00,
2013-05-03 07:32:00,51.4,19.8,30.24,West,271,0.0,0.0,28,0.00,,---,0.00,VWS V14.00,2013-05-03 14:32:00,
2013-05-03 07:37:00,52.1,19.6,30.25,West,271,0.0,0.0,28,0.00,,---,0.00,VWS V14.00,2013-05-03 14:37:00,
2013-05-03 07:42:00,52.0,20.3,30.25,West,271,0.0,0.0,28,0.00,,---,0.00,VWS V14.00,2013-05-03 14:42:00,
2013-05-03 07:52:00,52.1,19.6,30.24,West,271,0.0,0.0,28,0.00,,---,0.00,VWS V14.00,2013-05-03 14:52:00,
2013-05-03 07:57:00,53.1,19.6,30.24,West,271,0.0,0.0,26,0.00,,---,0.00,VWS V14.00,2013-05-03 14:57:00,
2013-05-03 08:02:00,53.4,19.8,30.24,West,271,0.0,0.0,26,0.00,,---,0.00,VWS V14.00,2013-05-03 15:02:00,
2013-05-03 08:07:00,53.5,19.9,30.25,West,271,0.0,0.0,26,0.00,,---,0.00,VWS V14.00,2013-05-03 15:07:00,
2013-05-03 08:12:00,53.9,21.1,30.24,West,271,0.0,0.0,28,0.00,,---,0.00,VWS V14.00,2013-05-03 15:12:00,
2013-05-03 08:22:00,55.1,20.4,30.24,West,271,0.0,0.0,26,0.00,,---,0.00,VWS V14.00,2013-05-03 15:22:00,
2013-05-03 08:27:00,55.5,20.7,30.24,West,271,0.0,0.0,26,0.00,,---,0.00,VWS V14.00,2013-05-03 15:27:00,
2013-05-03 08:32:00,55.8,21.0,30.24,West,271,0.0,0.0,26,0.00,,---,0.00,VWS V14.00,2013-05-03 15:32:00,
2013-05-03 08:42:00,57.0,21.1,30.23,West,271,0.0,0.0,24,0.00,,---,0.00,VWS V14.00,2013-05-03 15:42:00,
2013-05-03 08:47:00,57.9,21.8,30.23,West,271,0.0,0.0,24,0.00,,---,0.00,VWS V14.00,2013-05-03 15:47:00,
2013-05-03 08:57:00,58.5,22.4,30.23,West,271,0.0,0.0,24,0.00,,---,0.00,VWS V14.00,2013-05-03 15:57:00,
2013-05-03 09:02:00,58.7,22.5,30.23,West,271,0.0,1.0,24,0.00,,---,0.00,VWS V14.00,2013-05-03 16:02:00,
2013-05-03 09:12:00,59.3,23.0,30.23,West,271,0.0,0.0,24,0.00,,---,0.00,VWS V14.00,2013-05-03 16:12:00,
2013-05-03 09:17:00,59.6,24.2,30.23,West,271,1.0,8.0,26,0.00,,---,0.00,VWS V14.00,2013-05-03 16:17:00,
2013-05-03 09:27:00,59.7,26.1,30.23,West,271,0.0,4.0,28,0.00,,---,0.00,VWS V14.00,2013-05-03 16:27:00,
2013-05-03 09:32:00,59.3,27.5,30.23,West,271,0.0,6.0,30,0.00,,---,0.00,VWS V14.00,2013-05-03 16:32:00,
2013-05-03 09:42:00,60.2,25.7,30.23,West,271,0.0,5.0,26,0.00,,---,0.00,VWS V14.00,2013-05-03 16:42:00,
2013-05-03 09:47:00,60.6,26.0,30.23,West,271,0.0,0.0,26,0.00,,---,0.00,VWS V14.00,2013-05-03 16:47:00,
2013-05-03 09:57:00,61.5,25.9,30.22,West,271,0.0,0.0,26,0.00,,---,0.00,VWS V14.00,2013-05-03 16:57:00,
2013-05-03 10:02:00,61.8,26.1,30.22,West,271,0.0,0.0,26,0.00,,---,0.00,VWS V14.00,2013-05-03 17:02:00,
2013-05-03 10:07:00,62.5,23.7,30.22,West,271,0.0,0.0,22,0.00,,---,0.00,VWS V14.00,2013-05-03 17:07:00,
2013-05-03 10:17:00,63.5,24.5,30.22,West,271,0.0,0.0,22,0.00,,---,0.00,VWS V14.00,2013-05-03 17:17:00,
2013-05-03 10:22:00,63.8,24.8,30.22,West,271,0.0,0.0,22,0.00,,---,0.00,VWS V14.00,2013-05-03 17:22:00,
2013-05-03 10:27:00,64.0,23.9,30.21,West,271,0.0,0.0,22,0.00,,---,0.00,VWS V14.00,2013-05-03 17:27:00,
2013-05-03 10:32:00,65.1,23.6,30.21,West,271,0.0,6.0,20,0.00,,---,0.00,VWS V14.00,2013-05-03 17:32:00,
2013-05-03 10:37:00,65.6,25.2,30.21,West,271,0.0,8.0,22,0.00,,---,0.00,VWS V14.00,2013-05-03 17:37:00,
2013-05-03 10:42:00,65.8,26.5,30.21,West,271,2.0,9.0,22,0.00,,---,0.00,VWS V14.00,2013-05-03 17:42:00,
2013-05-03 10:47:00,65.7,26.4,30.21,West,271,6.0,7.0,22,0.00,,---,0.00,VWS V14.00,2013-05-03 17:47:00,
2013-05-03 10:57:00,66.5,28.1,30.21,West,271,1.0,9.0,24,0.00,,---,0.00,VWS V14.00,2013-05-03 17:57:00,
2013-05-03 11:02:00,66.5,27.1,30.21,West,271,0.0,6.0,22,0.00,,---,0.00,VWS V14.00,2013-05-03 18:02:00,
2013-05-03 11:07:00,66.8,28.4,30.21,West,271,5.0,6.0,24,0.00,,---,0.00,VWS V14.00,2013-05-03 18:07:00,
2013-05-03 11:12:00,67.6,28.0,30.20,West,271,0.0,7.0,22,0.00,,---,0.00,VWS V14.00,2013-05-03 18:12:00,
2013-05-03 11:18:00,68.0,28.3,30.20,West,271,0.0,7.0,22,0.00,,---,0.00,VWS V14.00,2013-05-03 18:18:00,
2013-05-03 11:27:00,68.4,29.7,30.20,West,271,0.0,7.0,24,0.00,,---,0.00,VWS V14.00,2013-05-03 18:27:00,
2013-05-03 11:37:00,69.4,29.5,30.20,WNW,284,0.0,15.0,22,0.00,,---,0.00,VWS V14.00,2013-05-03 18:37:00,
2013-05-03 11:42:00,70.2,30.2,30.19,WNW,284,7.0,11.0,22,0.00,,---,0.00,VWS V14.00,2013-05-03 18:42:00,
2013-05-03 12:02:00,71.4,30.0,30.18,West,275,4.0,8.0,22,0.00,,---,0.00,VWS V14.00,2013-05-03 19:02:00,
2013-05-03 12:22:00,73.2,27.9,30.18,West,272,9.0,12.0,18,0.00,,---,0.00,VWS V14.00,2013-05-03 19:22:00,
2013-05-03 12:27:00,73.3,29.2,30.17,West,272,6.0,10.0,20,0.00,,---,0.00,VWS V14.00,2013-05-03 19:27:00,
2013-05-03 12:32:00,73.7,28.3,30.17,West,271,9.0,12.0,18,0.00,,---,0.00,VWS V14.00,2013-05-03 19:32:00,
2013-05-03 12:37:00,73.1,27.8,30.17,West,269,7.0,16.0,18,0.00,,---,0.00,VWS V14.00,2013-05-03 19:37:00,
2013-05-03 12:42:00,72.7,27.5,30.17,West,267,6.0,14.0,18,0.00,,---,0.00,VWS V14.00,2013-05-03 19:42:00,
2013-05-03 12:47:00,73.3,29.2,30.16,West,260,10.0,16.0,20,0.00,,---,0.00,VWS V14.00,2013-05-03 19:47:00,
2013-05-03 12:52:00,73.9,28.4,30.16,West,260,8.0,14.0,18,0.00,,---,0.00,VWS V14.00,2013-05-03 19:52:00,
2013-05-03 12:57:00,73.8,28.4,30.16,West,265,6.0,12.0,18,0.00,,---,0.00,VWS V14.00,2013-05-03 19:57:00,
2013-05-03 13:02:00,73.9,28.4,30.16,West,266,8.0,9.0,18,0.00,,---,0.00,VWS V14.00,2013-05-03 20:02:00,
2013-05-03 13:12:00,74.0,28.5,30.16,WNW,288,8.0,15.0,18,0.00,,---,0.00,VWS V14.00,2013-05-03 20:12:00,
2013-05-03 13:17:00,73.7,26.9,30.16,WNW,289,10.0,12.0,18,0.00,,---,0.00,VWS V14.00,2013-05-03 20:17:00,
2013-05-03 13:22:00,73.6,26.8,30.15,WNW,288,5.0,11.0,18,0.00,,---,0.00,VWS V14.00,2013-05-03 20:22:00,
2013-05-03 13:37:00,74.7,29.1,30.15,WNW,289,5.0,10.0,18,0.00,,---,0.00,VWS V14.00,2013-05-03 20:37:00,
2013-05-03 13:42:00,74.9,26.5,30.15,WNW,298,1.0,12.0,16,0.00,,---,0.00,VWS V14.00,2013-05-03 20:42:00,
2013-05-03 13:47:00,75.7,25.6,30.14,WNW,299,7.0,14.0,16,0.00,,---,0.00,VWS V14.00,2013-05-03 20:47:00,
2013-05-03 13:57:00,74.4,24.6,30.14,WNW,299,8.0,9.0,16,0.00,,---,0.00,VWS V14.00,2013-05-03 20:57:00,
2013-05-03 14:02:00,74.7,24.8,30.14,WNW,298,5.0,16.0,16,0.00,,---,0.00,VWS V14.00,2013-05-03 21:02:00,
2013-05-03 14:07:00,75.1,23.5,30.14,WNW,298,0.0,11.0,14,0.00,,---,0.00,VWS V14.00,2013-05-03 21:07:00,
2013-05-03 14:12:00,75.7,22.3,30.14,WNW,300,5.0,10.0,14,0.00,,---,0.00,VWS V14.00,2013-05-03 21:12:00,
2013-05-03 14:17:00,75.8,24.1,30.13,WNW,302,2.0,8.0,14,0.00,,---,0.00,VWS V14.00,2013-05-03 21:17:00,
2013-05-03 14:22:00,76.3,24.5,30.13,NW,304,9.0,12.0,14,0.00,,---,0.00,VWS V14.00,2013-05-03 21:22:00,
2013-05-03 14:27:00,76.1,22.6,30.13,NW,304,6.0,12.0,14,0.00,,---,0.00,VWS V14.00,2013-05-03 21:27:00,
2013-05-03 14:32:00,76.5,24.6,30.13,NNW,348,11.0,16.0,14,0.00,,---,0.00,VWS V14.00,2013-05-03 21:32:00,
2013-05-03 14:37:00,76.4,22.9,30.13,NNE,19,0.0,15.0,14,0.00,,---,0.00,VWS V14.00,2013-05-03 21:37:00,
2013-05-03 14:42:00,76.3,24.5,30.13,NNW,333,13.0,20.0,14,0.00,,---,0.00,VWS V14.00,2013-05-03 21:42:00,
2013-05-03 14:47:00,77.1,25.1,30.12,NW,313,14.0,16.0,14,0.00,,---,0.00,VWS V14.00,2013-05-03 21:47:00,
2013-05-03 14:52:00,76.7,24.8,30.12,NNW,333,4.0,15.0,14,0.00,,---,0.00,VWS V14.00,2013-05-03 21:52:00,
2013-05-03 14:57:00,76.8,26.5,30.12,NNW,330,10.0,13.0,16,0.00,,---,0.00,VWS V14.00,2013-05-03 21:57:00,
2013-05-03 15:02:00,76.7,26.4,30.12,NNW,329,12.0,13.0,16,0.00,,---,0.00,VWS V14.00,2013-05-03 22:02:00,
2013-05-03 15:07:00,76.6,24.7,30.11,NW,322,10.0,14.0,14,0.00,,---,0.00,VWS V14.00,2013-05-03 22:07:00,
2013-05-03 15:12:00,76.2,24.4,30.11,NW,311,7.0,14.0,14,0.00,,---,0.00,VWS V14.00,2013-05-03 22:12:00,
2013-05-03 15:17:00,76.5,24.6,30.11,NW,312,11.0,14.0,14,0.00,,---,0.00,VWS V14.00,2013-05-03 22:17:00,
2013-05-03 15:22:00,76.7,24.8,30.11,WNW,303,10.0,18.0,14,0.00,,---,0.00,VWS V14.00,2013-05-03 22:22:00,
2013-05-03 15:27:00,76.4,24.6,30.11,NNW,338,11.0,15.0,14,0.00,,---,0.00,VWS V14.00,2013-05-03 22:27:00,
2013-05-03 15:32:00,76.3,24.5,30.11,NNW,341,0.0,15.0,14,0.00,,---,0.00,VWS V14.00,2013-05-03 22:32:00,
2013-05-03 15:37:00,76.5,22.9,30.10,North,350,5.0,12.0,14,0.00,,---,0.00,VWS V14.00,2013-05-03 22:37:00,
2013-05-03 15:42:00,76.9,25.0,30.10,North,350,9.0,12.0,14,0.00,,---,0.00,VWS V14.00,2013-05-03 22:42:00,
2013-05-03 15:47:00,77.2,25.2,30.10,North,349,6.0,12.0,14,0.00,,---,0.00,VWS V14.00,2013-05-03 22:47:00,
2013-05-03 15:52:00,76.6,24.7,30.10,NNW,337,10.0,13.0,14,0.00,,---,0.00,VWS V14.00,2013-05-03 22:52:00,
2013-05-03 15:57:00,76.7,23.1,30.10,NNW,338,16.0,20.0,14,0.00,,---,0.00,VWS V14.00,2013-05-03 22:57:00,
2013-05-03 16:02:00,76.3,24.5,30.10,North,355,10.0,18.0,14,0.00,,---,0.00,VWS V14.00,2013-05-03 23:02:00,
2013-05-03 16:07:00,76.4,26.2,30.09,NNW,329,10.0,16.0,16,0.00,,---,0.00,VWS V14.00,2013-05-03 23:07:00,
2013-05-03 16:12:00,76.5,24.6,30.09,NNW,329,1.0,10.0,14,0.00,,---,0.00,VWS V14.00,2013-05-03 23:12:00,
2013-05-03 16:17:00,76.8,24.9,30.09,NW,312,11.0,15.0,14,0.00,,---,0.00,VWS V14.00,2013-05-03 23:17:00,
2013-05-03 16:22:00,76.9,25.0,30.09,NNW,338,8.0,16.0,14,0.00,,---,0.00,VWS V14.00,2013-05-03 23:22:00,
2013-05-03 16:27:00,76.5,22.9,30.09,North,355,2.0,14.0,14,0.00,,---,0.00,VWS V14.00,2013-05-03 23:27:00,
2013-05-03 16:32:00,76.9,25.0,30.09,North,355,6.0,14.0,14,0.00,,---,0.00,VWS V14.00,2013-05-03 23:32:00,
2013-05-03 16:37:00,77.1,25.1,30.09,NW,319,12.0,16.0,14,0.00,,---,0.00,VWS V14.00,2013-05-03 23:37:00,
2013-05-03 16:47:00,76.9,23.2,30.09,North,360,13.0,18.0,14,0.00,,---,0.00,VWS V14.00,2013-05-03 23:47:00,
2013-05-03 16:52:00,76.2,22.7,30.09,NNW,344,6.0,19.0,14,0.00,,---,0.00,VWS V14.00,2013-05-03 23:52:00,
2013-05-03 16:57:00,76.1,22.6,30.09,NNW,337,9.0,14.0,14,0.00,,---,0.00,VWS V14.00,2013-05-03 23:57:00,
2013-05-03 17:02:00,76.0,22.5,30.08,NNW,327,7.0,19.0,14,0.00,,---,0.00,VWS V14.00,2013-05-04 00:02:00,
2013-05-03 17:07:00,76.3,22.8,30.08,NNW,345,11.0,19.0,14,0.00,,---,0.00,VWS V14.00,2013-05-04 00:07:00,
2013-05-03 17:12:00,76.6,23.0,30.08,North,360,10.0,20.0,14,0.00,,---,0.00,VWS V14.00,2013-05-04 00:12:00,
2013-05-03 17:17:00,76.3,21.0,30.08,North,360,22.0,22.0,12,0.00,,---,0.00,VWS V14.00,2013-05-04 00:17:00,
2013-05-03 17:22:00,76.0,20.7,30.08,North,355,14.0,22.0,12,0.00,,---,0.00,VWS V14.00,2013-05-04 00:22:00,
2013-05-03 17:27:00,75.7,20.5,30.08,North,5,10.0,14.0,12,0.00,,---,0.00,VWS V14.00,2013-05-04 00:27:00,
2013-05-03 17:32:00,75.5,22.1,30.08,North,355,12.0,20.0,14,0.00,,---,0.00,VWS V14.00,2013-05-04 00:32:00,
2013-05-03 17:37:00,75.5,20.3,30.08,NNW,342,13.0,21.0,12,0.00,,---,0.00,VWS V14.00,2013-05-04 00:37:00,
2013-05-03 17:42:00,75.4,20.3,30.08,NNW,344,13.0,21.0,12,0.00,,---,0.00,VWS V14.00,2013-05-04 00:42:00,
2013-05-03 17:47:00,75.0,19.9,30.08,NNW,344,13.0,24.0,12,0.00,,---,0.00,VWS V14.00,2013-05-04 00:47:00,
2013-05-03 17:52:00,75.2,20.1,30.08,NNW,346,10.0,22.0,12,0.00,,---,0.00,VWS V14.00,2013-05-04 00:52:00,
2013-05-03 17:57:00,75.5,20.3,30.08,North,355,16.0,21.0,12,0.00,,---,0.00,VWS V14.00,2013-05-04 00:57:00,
2013-05-03 18:02:00,74.6,19.6,30.08,NW,309,18.0,25.0,12,0.00,,---,0.00,VWS V14.00,2013-05-04 01:02:00,
2013-05-03 18:12:00,74.2,19.3,30.08,NNE,17,15.0,26.0,12,0.00,,---,0.00,VWS V14.00,2013-05-04 01:12:00,
2013-05-03 18:17:00,74.2,19.3,30.08,NNW,335,11.0,20.0,12,0.00,,---,0.00,VWS V14.00,2013-05-04 01:17:00,
2013-05-03 18:22:00,74.0,19.2,30.08,North,355,12.0,27.0,12,0.00,,---,0.00,VWS V14.00,2013-05-04 01:22:00,
2013-05-03 18:27:00,73.6,18.9,30.08,NNE,15,21.0,26.0,12,0.00,,---,0.00,VWS V14.00,2013-05-04 01:27:00,
2013-05-03 18:32:00,73.6,18.9,30.08,North,9,21.0,23.0,12,0.00,,---,0.00,VWS V14.00,2013-05-04 01:32:00,
2013-05-03 18:37:00,72.7,18.1,30.08,NNW,331,19.0,29.0,12,0.00,,---,0.00,VWS V14.00,2013-05-04 01:37:00,
2013-05-03 18:42:00,72.2,17.8,30.08,North,355,20.0,24.0,12,0.00,,---,0.00,VWS V14.00,2013-05-04 01:42:00,
2013-05-03 18:47:00,71.9,17.5,30.08,North,350,20.0,23.0,12,0.00,,---,0.00,VWS V14.00,2013-05-04 01:47:00,
2013-05-03 18:52:00,71.4,17.1,30.08,NNW,346,11.0,24.0,12,0.00,,---,0.00,VWS V14.00,2013-05-04 01:52:00,
2013-05-03 18:57:00,71.3,15.1,30.08,North,355,20.0,22.0,12,0.00,,---,0.00,VWS V14.00,2013-05-04 01:57:00,
2013-05-03 19:02:00,71.1,15.0,30.08,North,355,16.0,20.0,12,0.00,,---,0.00,VWS V14.00,2013-05-04 02:02:00,
2013-05-03 19:07:00,70.8,14.7,30.08,NNE,17,13.0,23.0,12,0.00,,---,0.00,VWS V14.00,2013-05-04 02:07:00,
2013-05-03 19:12:00,70.4,14.4,30.08,NNE,19,14.0,21.0,12,0.00,,---,0.00,VWS V14.00,2013-05-04 02:12:00,
2013-05-03 19:17:00,70.3,14.4,30.08,NNE,19,13.0,21.0,12,0.00,,---,0.00,VWS V14.00,2013-05-04 02:17:00,
2013-05-03 19:22:00,70.1,14.2,30.08,NE,34,16.0,21.0,12,0.00,,---,0.00,VWS V14.00,2013-05-04 02:22:00,
2013-05-03 19:27:00,69.8,14.0,30.08,North,5,15.0,21.0,12,0.00,,---,0.00,VWS V14.00,2013-05-04 02:27:00,
2013-05-03 19:32:00,69.4,13.6,30.08,NNE,26,12.0,18.0,12,0.00,,---,0.00,VWS V14.00,2013-05-04 02:32:00,
2013-05-03 19:37:00,69.0,13.3,30.08,NNE,20,11.0,18.0,12,0.00,,---,0.00,VWS V14.00,2013-05-04 02:37:00,
2013-05-03 19:42:00,68.5,12.9,30.08,NNE,13,10.0,16.0,12,0.00,,---,0.00,VWS V14.00,2013-05-04 02:42:00,
2013-05-03 19:47:00,68.1,12.6,30.08,NNE,30,12.0,14.0,12,0.00,,---,0.00,VWS V14.00,2013-05-04 02:47:00,
2013-05-03 19:52:00,67.6,12.2,30.08,NNE,27,11.0,14.0,12,0.00,,---,0.00,VWS V14.00,2013-05-04 02:52:00,
2013-05-03 20:02:00,67.0,11.8,30.08,NNE,24,8.0,14.0,12,0.00,,---,0.00,VWS V14.00,2013-05-04 03:02:00,
2013-05-03 20:07:00,66.7,11.6,30.09,NNE,32,11.0,13.0,12,0.00,,---,0.00,VWS V14.00,2013-05-04 03:07:00,
2013-05-03 20:12:00,66.5,11.4,30.08,NNE,32,10.0,12.0,12,0.00,,---,0.00,VWS V14.00,2013-05-04 03:12:00,
2013-05-03 20:22:00,66.0,12.9,30.09,NE,35,10.0,12.0,12,0.00,,---,0.00,VWS V14.00,2013-05-04 03:22:00,
2013-05-03 20:27:00,65.8,12.7,30.09,NE,36,7.0,12.0,12,0.00,,---,0.00,VWS V14.00,2013-05-04 03:27:00,
2013-05-03 20:32:00,65.0,12.1,30.09,NE,36,6.0,9.0,12,0.00,,---,0.00,VWS V14.00,2013-05-04 03:32:00,
2013-05-03 20:37:00,64.7,11.9,30.09,NE,39,8.0,11.0,12,0.00,,---,0.00,VWS V14.00,2013-05-04 03:37:00,
2013-05-03 20:42:00,64.8,11.9,30.09,NE,40,6.0,10.0,12,0.00,,---,0.00,VWS V14.00,2013-05-04 03:42:00,
2013-05-03 20:52:00,62.7,12.0,30.09,NE,44,0.0,0.0,14,0.00,,---,0.00,VWS V14.00,2013-05-04 03:52:00,
2013-05-03 20:57:00,62.0,11.5,30.09,NE,44,0.0,0.0,14,0.00,,---,0.00,VWS V14.00,2013-05-04 03:57:00,
2013-05-03 21:02:00,61.0,10.7,30.09,NE,44,0.0,0.0,14,0.00,,---,0.00,VWS V14.00,2013-05-04 04:02:00,
2013-05-03 21:07:00,61.6,11.1,30.09,NE,45,0.0,0.0,14,0.00,,---,0.00,VWS V14.00,2013-05-04 04:07:00,
2013-05-03 21:12:00,61.6,11.1,30.09,NE,45,0.0,0.0,14,0.00,,---,0.00,VWS V14.00,2013-05-04 04:12:00,
2013-05-03 21:22:00,62.1,11.5,30.10,NE,45,0.0,0.0,14,0.00,,---,0.00,VWS V14.00,2013-05-04 04:22:00,
2013-05-03 21:27:00,61.1,10.8,30.10,NE,45,0.0,0.0,14,0.00,,---,0.00,VWS V14.00,2013-05-04 04:27:00,
2013-05-03 21:32:00,60.2,11.6,30.10,NE,45,0.0,0.0,14,0.00,,---,0.00,VWS V14.00,2013-05-04 04:32:00,
2013-05-03 21:37:00,60.6,13.5,30.10,NE,45,0.0,0.0,16,0.00,,---,0.00,VWS V14.00,2013-05-04 04:37:00,
2013-05-03 21:42:00,60.7,12.0,30.10,NE,45,0.0,0.0,14,0.00,,---,0.00,VWS V14.00,2013-05-04 04:42:00,
2013-05-03 21:47:00,60.7,12.0,30.10,NE,45,0.0,0.0,14,0.00,,---,0.00,VWS V14.00,2013-05-04 04:47:00,
2013-05-03 21:57:00,61.5,12.7,30.10,NE,45,0.0,0.0,14,0.00,,---,0.00,VWS V14.00,2013-05-04 04:57:00,
2013-05-03 22:07:00,62.3,11.7,30.11,NE,45,0.0,0.0,14,0.00,,---,0.00,VWS V14.00,2013-05-04 05:07:00,
2013-05-03 22:12:00,62.2,11.6,30.11,NE,45,0.0,0.0,14,0.00,,---,0.00,VWS V14.00,2013-05-04 05:12:00,
2013-05-03 22:17:00,61.4,11.0,30.10,NE,45,0.0,0.0,14,0.00,,---,0.00,VWS V14.00,2013-05-04 05:17:00,
2013-05-03 22:22:00,61.2,10.8,30.10,NE,45,0.0,0.0,14,0.00,,---,0.00,VWS V14.00,2013-05-04 05:22:00,
2013-05-03 22:27:00,61.3,10.9,30.11,NE,45,0.0,0.0,14,0.00,,---,0.00,VWS V14.00,2013-05-04 05:27:00,
2013-05-03 22:32:00,61.1,10.8,30.11,NE,45,0.0,0.0,14,0.00,,---,0.00,VWS V14.00,2013-05-04 05:32:00,
2013-05-03 22:37:00,60.9,12.2,30.11,NE,45,0.0,0.0,14,0.00,,---,0.00,VWS V14.00,2013-05-04 05:37:00,
2013-05-03 22:47:00,60.8,12.1,30.11,NE,45,0.0,0.0,14,0.00,,---,0.00,VWS V14.00,2013-05-04 05:47:00,
2013-05-03 22:52:00,59.9,11.4,30.11,NE,45,0.0,0.0,14,0.00,,---,0.00,VWS V14.00,2013-05-04 05:52:00,
2013-05-03 22:57:00,59.4,11.0,30.11,NE,45,0.0,0.0,14,0.00,,---,0.00,VWS V14.00,2013-05-04 05:57:00,
2013-05-03 23:02:00,59.0,10.7,30.11,NE,45,0.0,0.0,14,0.00,,---,0.00,VWS V14.00,2013-05-04 06:02:00,
2013-05-03 23:12:00,58.8,10.5,30.11,NE,45,0.0,0.0,14,0.00,,---,0.00,VWS V14.00,2013-05-04 06:12:00,
2013-05-03 23:17:00,58.5,11.8,30.11,NE,45,0.0,0.0,16,0.00,,---,0.00,VWS V14.00,2013-05-04 06:17:00,
2013-05-03 23:22:00,58.6,11.9,30.11,NE,45,0.0,0.0,16,0.00,,---,0.00,VWS V14.00,2013-05-04 06:22:00,
2013-05-03 23:27:00,58.5,11.8,30.11,NE,45,0.0,0.0,16,0.00,,---,0.00,VWS V14.00,2013-05-04 06:27:00,
2013-05-03 23:32:00,57.4,10.9,30.11,NE,45,0.0,0.0,16,0.00,,---,0.00,VWS V14.00,2013-05-04 06:32:00,
2013-05-03 23:42:00,57.1,12.1,30.11,NE,45,0.0,0.0,16,0.00,,---,0.00,VWS V14.00,2013-05-04 06:42:00,
2013-05-03 23:52:00,57.0,14.6,30.11,NE,45,0.0,0.0,18,0.00,,---,0.00,VWS V14.00,2013-05-04 06:52:00,
2013-05-03 23:57:00,56.2,15.1,30.11,NE,45,0.0,0.0,20,0.00,,---,0.00,VWS V14.00,2013-05-04 06:57:00,